Hourly Data Report for October 28, 2013

All times are specified in Local Standard Time (LST). Add 1 hour to adjust for Daylight Saving Time where and when it is observed.

FORT LIARD
NORTHWEST TERRITORIES

60°14'00.000" N
123°28'00.000" W
213.40 m
2201579
71497
WJL

Download Data

Hourly Data (October 2013)
Hourly Data Report for October 28, 2013
Temp Definition
°C
Dew Point Temp Definition
°C
Rel Hum Definition
%
Wind Dir Definition
10's deg

Wind Spd Definition
km/h
Visibility Definition
km
Stn Press Definition
kPa
Hmdx Definition


Wind Chill Definition


Weather Definition


TIME
00:00 -3.1 -3.6 96 22 7   100.45   -6 LegendNANA
01:00 -3.4 -4.0 96 21 4   100.33   -5 LegendNANA
02:00 -2.3 -2.8 96 23 7   100.22   -5 LegendNANA
03:00 -2.4 -3.0 96 25 6   100.11   -5 LegendNANA
04:00 -3.1 -3.7 96 24 4   99.96   -5 LegendNANA
05:00 -1.4 -2.6 92 24 13   99.78   -6 LegendNANA
06:00 -1.2 -2.6 90 26 11   99.61   -5 LegendNANA
07:00 -1.0 -2.5 90 21 13   99.40   -5 LegendNANA
08:00 -0.9 -2.4 90 22 24   99.22   -7 LegendNANA
09:00 -0.5 -2.3 88 23 26   99.07   -7 LegendNANA
10:00 0.1 -1.9 86 22 19   98.97     LegendNANA
11:00 1.4 -1.6 80 26 7   98.84     LegendNANA
12:00 2.3 -0.9 79 20 4   98.73     LegendNANA
13:00 3.2 -0.5 77 21 7   98.63     LegendNANA
14:00 3.3 0.2 80 22 15   98.49     LegendNANA
15:00 4.0 1.0 81 22 15   98.41     LegendNANA
16:00 4.8 1.6 80 23 15   98.30     LegendNANA
17:00 4.5 1.5 81 26 4   98.20     LegendNANA
18:00 1.3 0.3 93 24 6   98.14     LegendNANA
19:00 1.2 0.4 94 24 4   98.07     LegendNANA
20:00 4.1 1.2 81 8 4   97.91     LegendNANA
21:00 7.7 2.4 69 23 7   97.90     LegendNANA
22:00 3.6 1.0 83   0   97.85     LegendNANA
23:00 2.0 0.7 91   0   97.76     LegendNANA

Notes on Data Quality.

Legend

  • E = Estimated
  • M = Missing
  • NA = Not Available
  • ‡ = Partner data that is not subject to review by the National Climate Archives
Date modified: